Index of /gentoo-portage/kde-apps/

NameLast ModifiedSizeType
Parent Directory/ -  Directory
akonadi/2017-Sep-22 18:14:50-  Directory
akonadi-calendar/2017-Sep-07 21:39:30-  Directory
akonadi-contacts/2017-Sep-07 21:39:30-  Directory
akonadi-import-wizard/2017-Sep-07 21:39:30-  Directory
akonadi-mime/2017-Sep-07 21:39:30-  Directory
akonadi-notes/2017-Sep-07 21:39:30-  Directory
akonadi-search/2017-Sep-07 21:39:30-  Directory
akonadiconsole/2017-Sep-07 21:39:30-  Directory
akregator/2017-Sep-13 21:06:50-  Directory
analitza/2017-Sep-07 21:39:30-  Directory
ark/2017-Sep-07 21:39:30-  Directory
artikulate/2017-Sep-07 21:39:30-  Directory
audiocd-kio/2017-Sep-07 21:39:30-  Directory
baloo-widgets/2017-Sep-07 21:39:30-  Directory
blinken/2017-Sep-07 21:39:30-  Directory
blogilo/2017-Sep-07 21:39:30-  Directory
bomber/2017-Sep-07 21:39:30-  Directory
bovo/2017-Sep-07 21:39:30-  Directory
calendarjanitor/2017-Sep-07 21:39:30-  Directory
calendarsupport/2017-Sep-07 21:39:30-  Directory
cantor/2017-Sep-07 21:39:30-  Directory
cervisia/2017-Sep-07 21:39:30-  Directory
dolphin/2017-Sep-07 21:39:30-  Directory
dolphin-plugins/2017-Sep-07 21:39:30-  Directory
dragon/2017-Sep-07 21:39:30-  Directory
eventviews/2017-Sep-07 21:39:30-  Directory
ffmpegthumbs/2017-Sep-07 21:39:30-  Directory
filelight/2017-Sep-07 21:39:30-  Directory
granatier/2017-Sep-07 21:39:30-  Directory
grantlee-editor/2017-Sep-07 21:39:30-  Directory
grantleetheme/2017-Sep-07 21:39:30-  Directory
gwenview/2017-Sep-07 21:39:30-  Directory
incidenceeditor/2017-Sep-07 21:39:30-  Directory
jovie/2017-Sep-07 21:39:30-  Directory
juk/2017-Sep-07 21:39:30-  Directory
k3b/2017-Sep-07 21:39:30-  Directory
kabcclient/2017-Aug-17 19:39:11-  Directory
kaccessible/2017-Sep-07 21:39:30-  Directory
kaccounts-integration/2017-Sep-07 21:39:30-  Directory
kaccounts-providers/2017-Sep-07 21:39:30-  Directory
kaddressbook/2017-Sep-07 21:39:30-  Directory
kajongg/2017-Sep-07 21:39:30-  Directory
kalarm/2017-Sep-07 21:39:30-  Directory
kalarmcal/2017-Sep-07 21:39:30-  Directory
kalgebra/2017-Sep-07 21:39:30-  Directory
kalzium/2017-Sep-07 21:39:30-  Directory
kamera/2017-Sep-07 21:39:30-  Directory
kanagram/2017-Sep-07 21:39:30-  Directory
kapman/2017-Sep-07 21:39:30-  Directory
kapptemplate/2017-Sep-07 21:39:30-  Directory
kate/2017-Sep-07 21:39:30-  Directory
katepart/2017-Sep-26 11:36:07-  Directory
katomic/2017-Sep-07 21:39:30-  Directory
kblackbox/2017-Sep-07 21:39:30-  Directory
kblocks/2017-Sep-07 21:39:30-  Directory
kblog/2017-Sep-07 21:39:30-  Directory
kbounce/2017-Sep-07 21:39:30-  Directory
kbreakout/2017-Sep-07 21:39:30-  Directory
kbruch/2017-Sep-07 21:39:30-  Directory
kcachegrind/2017-Sep-07 21:39:30-  Directory
kcalc/2017-Sep-07 21:39:30-  Directory
kcalcore/2017-Sep-07 21:39:30-  Directory
kcalutils/2017-Sep-07 21:39:30-  Directory
kcharselect/2017-Sep-07 21:39:30-  Directory
kcolorchooser/2017-Sep-07 21:39:30-  Directory
kcontacts/2017-Sep-07 21:39:30-  Directory
kcron/2017-Sep-07 21:39:30-  Directory
kdav/2017-Sep-07 21:39:30-  Directory
kde-apps-meta/2017-Sep-07 21:39:30-  Directory
kde-dev-scripts/2017-Sep-07 21:39:30-  Directory
kde-dev-utils/2017-Sep-07 21:39:30-  Directory
kde-meta/2017-Sep-07 21:39:30-  Directory
kde-wallpapers/2016-Aug-28 20:10:02-  Directory
kde4-l10n/2017-Sep-16 15:27:02-  Directory
kdeaccessibility-meta/2017-Sep-07 21:39:30-  Directory
kdeadmin-meta/2017-Sep-07 21:39:30-  Directory
kdebase-data/2016-Aug-25 13:46:59-  Directory
kdebase-kioslaves/2016-Aug-25 13:46:59-  Directory
kdebase-meta/2017-Sep-07 21:39:30-  Directory
kdebugsettings/2017-Sep-07 21:39:30-  Directory
kdecore-meta/2017-Sep-07 21:39:30-  Directory
kdeedu-data/2017-Sep-07 21:39:30-  Directory
kdeedu-meta/2017-Sep-07 21:39:30-  Directory
kdegames-meta/2017-Sep-07 21:39:30-  Directory
kdegraphics-meta/2017-Sep-07 21:39:30-  Directory
kdegraphics-mobipocket/2017-Sep-07 21:39:30-  Directory
kdemultimedia-meta/2017-Sep-07 21:39:30-  Directory
kdenetwork-filesharing/2017-Sep-07 21:39:30-  Directory
kdenetwork-meta/2017-Sep-07 21:39:30-  Directory
kdenlive/2017-Sep-07 21:39:30-  Directory
kdepim-addons/2017-Sep-07 21:39:30-  Directory
kdepim-apps-libs/2017-Sep-07 21:39:30-  Directory
kdepim-kresources/2017-Aug-17 19:39:11-  Directory
kdepim-l10n/2017-Aug-17 19:39:11-  Directory
kdepim-meta/2017-Sep-07 21:39:30-  Directory
kdepim-runtime/2017-Sep-07 21:39:30-  Directory
kdepim-wizards/2017-May-07 17:52:11-  Directory
kdepimlibs/2017-Aug-17 19:39:11-  Directory
kdesdk-kioslaves/2017-Sep-07 21:39:30-  Directory
kdesdk-meta/2017-Sep-07 21:39:30-  Directory
kdesdk-thumbnailers/2017-Sep-07 21:39:30-  Directory
kdeutils-meta/2017-Sep-07 21:39:30-  Directory
kdewebdev-meta/2017-Sep-07 21:39:30-  Directory
kdf/2017-Sep-07 21:39:30-  Directory
kdialog/2017-Sep-07 21:39:30-  Directory
kdiamond/2017-Sep-07 21:39:30-  Directory
keditbookmarks/2017-Sep-07 21:39:30-  Directory
kfilereplace/2017-Sep-07 21:39:30-  Directory
kfind/2017-Sep-07 21:39:30-  Directory
kfloppy/2017-Sep-07 21:39:30-  Directory
kfourinline/2017-Sep-07 21:39:30-  Directory
kgeography/2017-Sep-07 21:39:30-  Directory
kget/2017-Sep-07 21:39:30-  Directory
kgoldrunner/2017-Sep-07 21:39:30-  Directory
kgpg/2017-Sep-07 21:39:30-  Directory
khangman/2017-Sep-07 21:39:30-  Directory
khelpcenter/2017-Sep-07 21:39:30-  Directory
kholidays/2017-Sep-07 21:39:30-  Directory
kidentitymanagement/2017-Sep-07 21:39:30-  Directory
kig/2017-Sep-07 21:39:30-  Directory
kigo/2017-Sep-07 21:39:30-  Directory
killbots/2017-Sep-07 21:39:30-  Directory
kimagemapeditor/2017-Sep-07 21:39:30-  Directory
kimap/2017-Sep-07 21:39:30-  Directory
kio-extras/2017-Sep-07 21:39:30-  Directory
kioclient/2016-Aug-25 13:46:59-  Directory
kiriki/2017-Sep-07 21:39:30-  Directory
kiten/2017-Sep-07 21:39:30-  Directory
kjots/2017-Aug-17 19:39:11-  Directory
kjumpingcube/2017-Sep-07 21:39:30-  Directory
kldap/2017-Sep-07 21:39:30-  Directory
kleopatra/2017-Sep-07 21:39:30-  Directory
klettres/2017-Sep-07 21:39:30-  Directory
klickety/2017-Sep-07 21:39:30-  Directory
klines/2017-Sep-07 21:39:30-  Directory
klinkstatus/2017-Sep-07 21:39:30-  Directory
kmag/2017-Sep-07 21:39:30-  Directory
kmahjongg/2017-Sep-07 21:39:30-  Directory
kmail/2017-Sep-07 21:39:30-  Directory
kmail-account-wizard/2017-Sep-07 21:39:30-  Directory
kmailtransport/2017-Sep-07 21:39:30-  Directory
kmbox/2017-Sep-07 21:39:30-  Directory
kmime/2017-Sep-07 21:39:30-  Directory
kmines/2017-Sep-07 21:39:30-  Directory
kmix/2017-Sep-07 21:39:30-  Directory
kmousetool/2017-Sep-07 21:39:30-  Directory
kmouth/2017-Sep-07 21:39:30-  Directory
kmplot/2017-Sep-07 21:39:30-  Directory
knavalbattle/2017-Sep-07 21:39:30-  Directory
knetwalk/2017-Sep-07 21:39:30-  Directory
knode/2017-Aug-17 19:39:11-  Directory
knotes/2017-Sep-07 21:39:30-  Directory
knotify/2016-Aug-25 13:46:59-  Directory
kolf/2017-Sep-07 21:39:30-  Directory
kollision/2017-Sep-07 21:39:30-  Directory
kolourpaint/2017-Sep-07 21:39:30-  Directory
kompare/2017-Sep-07 21:39:30-  Directory
konqueror/2017-Sep-07 21:39:30-  Directory
konquest/2017-Sep-07 21:39:30-  Directory
konsole/2017-Sep-07 21:39:30-  Directory
konsolekalendar/2017-Sep-07 21:39:30-  Directory
konsolepart/2016-Jan-04 20:00:18-  Directory
kontact/2017-Sep-07 21:39:30-  Directory
kontactinterface/2017-Sep-07 21:39:30-  Directory
kopete/2017-Sep-07 21:39:30-  Directory
korganizer/2017-Sep-07 21:39:30-  Directory
kpat/2017-Sep-07 21:39:30-  Directory
kpimtextedit/2017-Sep-07 21:39:30-  Directory
kppp/2017-Sep-07 21:39:30-  Directory
kqtquickcharts/2017-Sep-07 21:39:30-  Directory
krdc/2017-Sep-07 21:39:30-  Directory
kremotecontrol/2017-Sep-07 21:39:30-  Directory
kreversi/2017-Sep-07 21:39:30-  Directory
krfb/2017-Sep-07 21:39:30-  Directory
kross-interpreters/2017-Sep-07 21:39:30-  Directory
kruler/2017-Sep-07 21:39:30-  Directory
kscd/2017-Sep-07 21:39:30-  Directory
kshisen/2017-Sep-07 21:39:30-  Directory
ksirk/2017-Sep-07 21:39:30-  Directory
ksnakeduel/2017-Sep-07 21:39:30-  Directory
kspaceduel/2017-Sep-07 21:39:30-  Directory
ksquares/2017-Sep-07 21:39:30-  Directory
kstars/2017-Sep-07 21:39:30-  Directory
ksudoku/2017-Sep-07 21:39:30-  Directory
ksystemlog/2017-Sep-07 21:39:30-  Directory
kteatime/2017-Sep-07 21:39:30-  Directory
ktimer/2017-Sep-07 21:39:30-  Directory
ktimetracker/2017-Aug-17 19:39:11-  Directory
ktimezoned/2016-Aug-25 13:46:59-  Directory
ktouch/2017-Sep-07 21:39:30-  Directory
ktp-accounts-kcm/2017-Sep-07 21:39:30-  Directory
ktp-approver/2017-Sep-07 21:39:30-  Directory
ktp-auth-handler/2017-Sep-07 21:39:30-  Directory
ktp-call-ui/2017-Sep-07 21:39:30-  Directory
ktp-common-internals/2017-Sep-07 21:39:30-  Directory
ktp-contact-list/2017-Sep-07 21:39:30-  Directory
ktp-contact-runner/2017-Sep-07 21:39:30-  Directory
ktp-desktop-applets/2017-Sep-07 21:39:30-  Directory
ktp-filetransfer-handler/2017-Sep-07 21:39:30-  Directory
ktp-kded-module/2017-Sep-07 21:39:30-  Directory
ktp-send-file/2017-Sep-07 21:39:30-  Directory
ktp-text-ui/2017-Sep-07 21:39:30-  Directory
ktuberling/2017-Sep-07 21:39:30-  Directory
kturtle/2017-Sep-07 21:39:30-  Directory
kubrick/2017-Sep-07 21:39:30-  Directory
kwalletmanager/2017-Sep-07 21:39:30-  Directory
kwave/2017-Sep-07 21:39:30-  Directory
kwordquiz/2017-Sep-07 21:39:30-  Directory
kwrite/2017-Sep-07 21:39:30-  Directory
libgravatar/2017-Sep-07 21:39:30-  Directory
libkcddb/2017-Sep-07 21:39:30-  Directory
libkcompactdisc/2017-Sep-07 21:39:30-  Directory
libkdcraw/2017-Sep-07 21:39:30-  Directory
libkdegames/2017-Sep-07 21:39:30-  Directory
libkdepim/2017-Sep-07 21:39:30-  Directory
libkeduvocdocument/2017-Sep-07 21:39:30-  Directory
libkexiv2/2017-Sep-07 21:39:30-  Directory
libkface/2017-Sep-07 21:39:30-  Directory
libkgapi/2017-Sep-07 21:39:30-  Directory
libkgeomap/2017-Sep-07 21:39:30-  Directory
libkipi/2017-Sep-07 21:39:30-  Directory
libkleo/2017-Sep-07 21:39:30-  Directory
libkmahjongg/2017-Sep-07 21:39:30-  Directory
libkomparediff2/2017-Sep-07 21:39:30-  Directory
libkpgp/2017-May-07 17:52:11-  Directory
libksane/2017-Sep-07 21:39:30-  Directory
libksieve/2017-Sep-07 21:39:30-  Directory
libktnef/2017-Sep-07 21:39:30-  Directory
lokalize/2017-Sep-07 21:39:30-  Directory
lskat/2017-Sep-07 21:39:30-  Directory
mailcommon/2017-Sep-07 21:39:30-  Directory
mailimporter/2017-Sep-07 21:39:30-  Directory
marble/2017-Sep-07 21:39:30-  Directory
mbox-importer/2017-Sep-07 21:39:30-  Directory
messagelib/2017-Sep-07 21:39:30-  Directory
minuet/2017-Sep-07 21:39:30-  Directory
okteta/2017-Sep-07 21:39:30-  Directory
okular/2017-Sep-07 21:39:30-  Directory
palapeli/2017-Sep-07 21:39:30-  Directory
parley/2017-Sep-07 21:39:30-  Directory
phonon-kde/2016-Aug-25 13:46:59-  Directory
picmi/2017-Sep-07 21:39:30-  Directory
pim-data-exporter/2017-Sep-07 21:39:30-  Directory
pim-sieve-editor/2017-Sep-07 21:39:30-  Directory
pimcommon/2017-Sep-07 21:39:30-  Directory
plasma-telepathy-meta/2017-Sep-07 21:39:30-  Directory
poxml/2017-Sep-07 21:39:30-  Directory
print-manager/2017-Sep-07 21:39:30-  Directory
rocs/2017-Sep-07 21:39:30-  Directory
signon-kwallet-extension/2017-Sep-07 21:39:30-  Directory
spectacle/2017-Sep-07 21:39:30-  Directory
step/2017-Sep-07 21:39:30-  Directory
svgpart/2017-Sep-07 21:39:30-  Directory
sweeper/2017-Sep-07 21:39:30-  Directory
syndication/2017-Sep-07 21:39:30-  Directory
thumbnailers/2017-Sep-07 21:39:30-  Directory
umbrello/2017-Sep-07 21:39:30-  Directory
zeroconf-ioslave/2017-Sep-07 21:39:30-  Directory
metadata.xml2015-Aug-24 23:30:340.2Ktext/xml
lighttpd